Regional Weather Roundup
Issued by NWS

Home | Current Version | Previous Version | Text Only | Print | Product List | Glossary Off
Versions: 1 2 3 4 5 6 7 8 9 10 11 12 13 14 15 16 17 18 19 20 21 22 23 24 25 26 27

000
ASUS45 KBOI 241510
RWRID

IDAHO REGIONAL WEATHER ROUNDUP
NATIONAL WEATHER SERVICE BOISE ID
800 AM MST FRI FEB 24 2017

NOTE: "FAIR" INDICATES FEW OR NO CLOUDS BELOW 12000 FEET
WITH NO SIGNIFICANT WEATHER AND/OR OBSTRUCTIONS TO VISIBILITY

IDZ012-014-241600-
SOUTHWEST IDAHO


CITY           SKY/WX    TMP DP  RH WIND       PRES   REMARKS
BOISE          NOT AVBL
CALDWELL       PTCLDY    25  19  78 W9        30.12R WCI  15
MOUNTAIN HOME  PTCLDY    24  19  80 W10       30.07R WCI  13
$$

IDZ016-017-241600-
SOUTHCENTRAL IDAHO


CITY           SKY/WX    TMP DP  RH WIND       PRES   REMARKS
BURLEY         CLOUDY    24  14  65 SW21      29.99R WCI   9
JEROME           N/A    N/A N/A N/A MISG      30.00R
TWIN FALLS     CLOUDY    19  11  70 SW20G26   30.01R WCI   3
$$

IDZ019>023-241600-
SOUTHEAST IDAHO


CITY           SKY/WX    TMP DP  RH WIND       PRES   REMARKS
IDAHO FALLS    LGT SNOW  19  18  95 S22       29.92R VSB 1   WCI   2
POCATELLO      LGT SNOW  20  17  88 SW21      29.99R FOG     WCI   4
REXBURG        SNOW      19  17  92 S14G22    29.92R VSB 1/2 WCI   6
$$

IDZ006-010-011-018-031-032-241600-
CENTRAL IDAHO MOUNTAINS


CITY           SKY/WX    TMP DP  RH WIND       PRES   REMARKS
MCCALL         CLOUDY    16   7  67 NW5       29.94R WCI   9
HAILEY         LGT SNOW  19  18  93 SE5       29.88R WCI  13
STANLEY          N/A     13  10  88 NW3       29.86R
SALMON         CLOUDY    25  19  80 CALM      29.96R
CHALLIS        CLOUDY    21  14  74 NW8       29.89R WCI  11
$$

IDZ002-004-006-007-026-241600-
NORTHERN IDAHO


CITY           SKY/WX    TMP DP  RH WIND       PRES   REMARKS
LEWISTON       PTCLDY    23  20  88 CALM      30.17R
LOWELL           N/A     29  26  89 CALM      30.19R
COEUR D`ALENE  FOG       18  18 100 NE7       30.13R VSB 3/4 WCI   8
MULLAN PASS    CLEAR      9   7  92 NW6       29.90S WCI  -1
$$




USA.gov is the U.S. government's official web portal to all federal, state and local government web resources and services.